Location: Lane
(33.5226°N, 79.8788°W)
Time: 17:57:46
(UTC+00:00)

Transit 2A - Pass Details

Date: 03 October 2022
Orbit: 598 x 959 km, 66.7° (Epoch: 06 December)

Event Time Altitude Azimuth Distance (km) Brightness Sun altitude
Rises 12:38:44 0° 345° (NNW) 2,992 8.8 16.2°
Reaches altitude 10° 12:41:10 10° 355° (N) 2,125 8.1 16.7°
Maximum altitude 12:45:29 32° 59° (ENE) 1,231 7.9 17.6°
Drops below altitude 10° 12:50:12 10° 122° (ESE) 2,323 10.4 18.5°
Sets 12:52:57 0° 132° (SE) 3,315 10.5 19.1°
